Torna al catalogo

SL-8 R/B

AttivoLEO
NORAD 10677·ROCKET BODY·🇷🇺 Russia

Lanciato Feb 17, 1978 da Plesetsk Cosmodrome

Loading…

Prossimi Passaggi (prossime 24 ore)

TLE

AggiornatoSource: Space-Track

Epoca: Sep 14, 2026, 03:44 UTC

1 10677U 78019B   26257.15592474  .00000175  00000-0  61787-4 0  9991
2 10677  74.0390 178.8262 0014116 146.4215 213.7839 14.41784340548316

Traccia SL-8 R/B in tempo reale con AllMySat

Download on the App Store